Home > Weather > Neenah > Past weeks

Flag for USA Past Weather in Neenah, Wisconsin, USA — Yesterday and Last 2 Weeks

Now
70 °F

Sunny.


Feels Like: 70 °F
Forecast: 60 / 74 °F
Wind: 9 mph from Northwest

Location: Appleton / Outagamie

Current Time: Jun 27, 2016 at 8:15:09 AM

Latest Report: Jun 27, 2016 at 7:45 AM


Visibility: 10 mi

Pressure: 29.98 "Hg

Humidity: 60%

Dew Point: 55 °F

Location of NeenahLocation

Past Weather in Neenah — Graph

°F

Neenah Temperature Yesterday

Maximum temperature yesterday: 84 °F (at 1:45 PM)
Minimum temperature yesterday: 66 °F (at 5:15 AM)
Average temperature yesterday: 75 °F

High & Low Weather Summary for the Past Weeks

 TemperatureHumidityPressure
High88 °F (Jun 25, 2:45 PM)100% (Jun 13, 10:45 AM)30.24 "Hg (Jun 13, 10:45 AM)
Low54 °F (Jun 13, 2:15 AM)26% (Jun 20, 1:45 PM)29.63 "Hg (Jun 15, 3:15 AM)
Average67 °F64%29.98 "Hg
* Reported Jun 12 6:45 AM — Jun 27 6:45 AM, Neenah, Weather by CustomWeather, © 2016

Note: Actual official high and low records may vary slightly from our data, if they occured in-between our weather recording intervals... More about our weather records

Advertising

Neenah Weather History for the Previous 24 Hours

Scroll right to see more
 ConditionsComfort  
Time TempWeatherWind HumidityBarometerVisibility
6:45 AM
Mon, Jun 27
66 °FSunny.7 mph68%29.96 "Hg10 mi
5:45 AM64 °FPassing clouds.7 mph73%29.95 "Hg10 mi
5:15 AM64 °FClear.8 mph68%29.94 "Hg10 mi
4:55 AM64 °FClear.8 mph68%29.94 "Hg10 mi
4:35 AM64 °FClear.7 mph68%29.94 "Hg10 mi
4:15 AM66 °FClear.10 mph68%29.94 "Hg10 mi
3:55 AM64 °FClear.8 mph73%29.94 "Hg10 mi
3:35 AM66 °FClear.8 mph68%29.94 "Hg10 mi
3:15 AM66 °FClear.7 mph68%29.94 "Hg10 mi
2:55 AM68 °FClear.6 mph64%29.93 "Hg10 mi
2:35 AM68 °FClear.8 mph64%29.93 "Hg10 mi
2:15 AM68 °FClear.7 mph64%29.93 "Hg10 mi
1:55 AM68 °FClear.8 mph64%29.93 "Hg10 mi
1:35 AM70 °FClear.9 mph60%29.93 "Hg10 mi
1:15 AM70 °FClear.8 mph60%29.93 "Hg10 mi
12:55 AM70 °FClear.7 mph60%29.93 "Hg10 mi
12:35 AM70 °FClear.8 mph60%29.94 "Hg10 mi
12:15 AM70 °FClear.8 mph60%29.94 "Hg10 mi
11:55 PM
Sun, Jun 26
70 °FClear.9 mph60%29.94 "Hg10 mi
11:35 PM70 °FClear.9 mph60%29.94 "Hg10 mi
11:15 PM70 °FClear.8 mph60%29.94 "Hg10 mi
10:45 PM72 °FClear.8 mph61%29.94 "Hg10 mi
9:45 PM72 °FClear.7 mph57%29.94 "Hg10 mi
8:45 PM75 °FSunny.9 mph47%29.91 "Hg10 mi
5:45 PM84 °FSunny.14 mph33%29.89 "Hg10 mi
4:45 PM84 °FScattered clouds.15 mph31%29.90 "Hg10 mi
3:45 PM84 °FScattered clouds.15 mph35%29.92 "Hg10 mi
2:45 PM84 °FScattered clouds.18 mph31%29.93 "Hg10 mi
1:45 PM84 °FScattered clouds.12 mph35%29.93 "Hg10 mi
12:45 PM81 °FScattered clouds.12 mph51%29.93 "Hg10 mi
11:45 AM79 °FScattered clouds.14 mph65%29.94 "Hg10 mi
10:45 AM77 °FScattered clouds.7 mph83%29.94 "Hg10 mi
9:45 AM73 °FPartly sunny.12 mph94%29.93 "Hg10 mi
8:45 AM72 °FLow clouds.12 mph100%29.94 "Hg10 mi
Weather by CustomWeather, © 2016

See weather overviewHow to use our weather pages